| time (UTC) | temp F | wind direction | speed MPH | gust MPH | rain 1hr in | rain 24hr in | rain mn in | humidity % | barometer mb |
| 20260504001803 | 52 | 217 | 1.0 | 5.0 | 0.00 | 0.00 | 0.00 | 87 | 1008.6 |
| 20260504001203 | 52 | 245 | 1.0 | 5.0 | 0.00 | 0.00 | 0.00 | 86 | 1008.6 |
| 20260504000603 | 52 | 244 | 2.0 | 5.0 | 0.00 | 0.00 | 0.00 | 86 | 1008.5 |
| 20260504000003 | 52 | 238 | 2.0 | 5.0 | 0.00 | 0.00 | 0.00 | 87 | 1008.5 |
| 20260503235424 | 52 | 253 | 1.0 | 5.0 | 0.00 | 0.00 | 0.00 | 87 | 1008.4 |
| 20260503234803 | 52 | 316 | 1.0 | 4.0 | 0.00 | 0.00 | 0.00 | 86 | 1008.5 |
| 20260503234203 | 52 | 316 | 1.0 | 4.0 | 0.00 | 0.00 | 0.00 | 86 | 1008.5 |
| 20260503233603 | 52 | 321 | 1.0 | 5.0 | 0.00 | 0.00 | 0.00 | 86 | 1008.5 |
| 20260503233003 | 52 | 300 | 1.0 | 5.0 | 0.00 | 0.00 | 0.00 | 85 | 1008.8 |
| 20260503232403 | 53 | 288 | 0.0 | 4.0 | 0.00 | 0.00 | 0.00 | 85 | 1008.8 |
| 20260503231824 | 53 | 321 | 2.0 | 6.0 | 0.00 | 0.00 | 0.00 | 85 | 1009.0 |
| 20260503231203 | 53 | 306 | 1.0 | 6.0 | 0.00 | 0.00 | 0.00 | 85 | 1008.9 |
| 20260503230603 | 53 | 263 | 0.0 | 3.0 | 0.00 | 0.00 | 0.00 | 85 | 1009.1 |
| 20260503230003 | 53 | 260 | 1.0 | 3.0 | 0.00 | 0.00 | 0.00 | 85 | 1008.8 |
| 20260503225424 | 53 | 247 | 1.0 | 3.0 | 0.00 | 0.00 | 0.00 | 85 | 1008.9 |
| 20260503224803 | 53 | 239 | 1.0 | 3.0 | 0.00 | 0.00 | 0.00 | 85 | 1008.9 |
| 20260503224203 | 53 | 236 | 0.0 | 3.0 | 0.00 | 0.00 | 0.00 | 84 | 1008.9 |
| 20260503223624 | 53 | 235 | 0.0 | 2.0 | 0.00 | 0.00 | 0.00 | 85 | 1009.1 |
| 20260503223024 | 53 | 235 | 0.0 | 2.0 | 0.00 | 0.00 | 0.00 | 84 | 1009.1 |
| 20260503222403 | 53 | 228 | 2.0 | 6.0 | 0.00 | 0.00 | 0.00 | 84 | 1009.1 |
| 20260503221803 | 53 | 224 | 2.0 | 6.0 | 0.00 | 0.00 | 0.00 | 85 | 1009.0 |
| 20260503221203 | 53 | 213 | 0.0 | 3.0 | 0.00 | 0.00 | 0.00 | 84 | 1009.0 |
| 20260503220603 | 53 | 229 | 1.0 | 4.0 | 0.00 | 0.00 | 0.00 | 85 | 1009.0 |
| 20260503220003 | 53 | 227 | 1.0 | 4.0 | 0.00 | 0.00 | 0.00 | 84 | 1008.8 |
| 20260503215403 | 53 | 196 | 2.0 | 7.0 | 0.00 | 0.00 | 0.00 | 84 | 1009.0 |
| 20260503214824 | 53 | 196 | 1.0 | 7.0 | 0.00 | 0.00 | 0.00 | 84 | 1009.0 |
| 20260503214203 | 53 | 189 | 1.0 | 7.0 | 0.00 | 0.00 | 0.00 | 85 | 1008.7 |
| 20260503213603 | 53 | 190 | 1.0 | 8.0 | 0.00 | 0.00 | 0.00 | 84 | 1008.8 |
| 20260503213003 | 53 | 184 | 1.0 | 6.0 | 0.00 | 0.00 | 0.00 | 85 | 1008.9 |
| 20260503212403 | 53 | 188 | 3.0 | 8.0 | 0.00 | 0.00 | 0.00 | 84 | 1008.8 |
| 20260503211803 | 53 | 186 | 3.0 | 9.0 | 0.00 | 0.00 | 0.00 | 84 | 1008.8 |
| 20260503211203 | 53 | 179 | 3.0 | 9.0 | 0.00 | 0.00 | 0.00 | 84 | 1008.7 |
| 20260503210603 | 53 | 170 | 4.0 | 7.0 | 0.00 | 0.00 | 0.00 | 84 | 1008.7 |
| 20260503210004 | 53 | 169 | 3.0 | 9.0 | 0.00 | 0.00 | 0.00 | 84 | 1008.7 |
| 20260503205403 | 53 | 168 | 2.0 | 9.0 | 0.00 | 0.00 | 0.00 | 84 | 1008.6 |
| 20260503204803 | 53 | 180 | 3.0 | 7.0 | 0.00 | 0.00 | 0.00 | 83 | 1008.5 |
| 20260503204203 | 53 | 182 | 4.0 | 8.0 | 0.00 | 0.00 | 0.00 | 83 | 1008.6 |
| 20260503203603 | 54 | 203 | 3.0 | 10.0 | 0.00 | 0.00 | 0.00 | 83 | 1008.5 |
| 20260503203003 | 54 | 199 | 2.0 | 8.0 | 0.00 | 0.00 | 0.00 | 83 | 1008.6 |
| 20260503202403 | 54 | 219 | 2.0 | 6.0 | 0.00 | 0.00 | 0.00 | 82 | 1008.7 |
| 20260503201803 | 54 | 210 | 2.0 | 6.0 | 0.00 | 0.00 | 0.00 | 82 | 1008.6 |
| 20260503201203 | 54 | 186 | 2.0 | 8.0 | 0.00 | 0.00 | 0.00 | 80 | 1008.5 |
| 20260503200603 | 55 | 199 | 3.0 | 10.0 | 0.00 | 0.00 | 0.00 | 80 | 1008.5 |
| 20260503200003 | 55 | 213 | 4.0 | 10.0 | 0.00 | 0.00 | 0.00 | 79 | 1008.5 |
| 20260503195403 | 56 | 228 | 3.0 | 7.0 | 0.00 | 0.00 | 0.00 | 77 | 1008.3 |
| 20260503194803 | 56 | 224 | 3.0 | 8.0 | 0.00 | 0.00 | 0.00 | 75 | 1008.3 |
| 20260503194203 | 57 | 224 | 3.0 | 8.0 | 0.00 | 0.00 | 0.00 | 76 | 1008.4 |
| 20260503193603 | 58 | 213 | 4.0 | 12.0 | 0.00 | 0.00 | 0.00 | 74 | 1008.3 |
| 20260503193024 | 58 | 212 | 3.0 | 8.0 | 0.00 | 0.00 | 0.00 | 74 | 1008.5 |
| 20260503192403 | 58 | 210 | 3.0 | 8.0 | 0.00 | 0.00 | 0.00 | 74 | 1008.3 |
| 20260503191803 | 59 | 211 | 3.0 | 6.0 | 0.00 | 0.00 | 0.00 | 75 | 1008.4 |
| 20260503191203 | 59 | 200 | 4.0 | 8.0 | 0.00 | 0.00 | 0.00 | 74 | 1008.3 |
| 20260503190624 | 59 | 204 | 3.0 | 8.0 | 0.00 | 0.00 | 0.00 | 74 | 1008.3 |
| 20260503190024 | 59 | 228 | 4.0 | 10.0 | 0.00 | 0.00 | 0.00 | 73 | 1008.3 |
| 20260503185403 | 59 | 229 | 4.0 | 10.0 | 0.00 | 0.00 | 0.00 | 73 | 1008.3 |
| 20260503184803 | 59 | 205 | 4.0 | 10.0 | 0.00 | 0.00 | 0.00 | 72 | 1008.3 |
| 20260503184203 | 60 | 187 | 2.0 | 8.0 | 0.00 | 0.00 | 0.00 | 72 | 1008.4 |
| 20260503183603 | 60 | 216 | 3.0 | 7.0 | 0.00 | 0.00 | 0.00 | 71 | 1008.3 |
| 20260503183003 | 60 | 206 | 3.0 | 10.0 | 0.00 | 0.00 | 0.00 | 73 | 1008.2 |
| 20260503182424 | 59 | 202 | 4.0 | 10.0 | 0.00 | 0.00 | 0.00 | 75 | 1008.3 |
| 20260503181803 | 59 | 210 | 3.0 | 10.0 | 0.00 | 0.00 | 0.00 | 75 | 1008.3 |
| 20260503181224 | 59 | 213 | 4.0 | 9.0 | 0.00 | 0.00 | 0.00 | 73 | 1008.3 |
| 20260503180603 | 60 | 221 | 4.0 | 12.0 | 0.00 | 0.00 | 0.00 | 72 | 1008.4 |
| 20260503180004 | 59 | 222 | 3.0 | 12.0 | 0.00 | 0.00 | 0.00 | 73 | 1008.4 |
| 20260503175403 | 60 | 228 | 2.0 | 10.0 | 0.00 | 0.00 | 0.00 | 72 | 1008.2 |
| 20260503174803 | 60 | 222 | 3.0 | 10.0 | 0.00 | 0.00 | 0.00 | 71 | 1008.2 |
| 20260503174203 | 59 | 170 | 2.0 | 9.0 | 0.00 | 0.00 | 0.00 | 76 | 1008.2 |
| 20260503173603 | 58 | 52 | 1.0 | 5.0 | 0.00 | 0.00 | 0.00 | 79 | 1008.0 |
| 20260503173003 | 58 | 335 | 0.0 | 4.0 | 0.00 | 0.00 | 0.00 | 79 | 1007.9 |
| 20260503172403 | 57 | 216 | 1.0 | 3.0 | 0.00 | 0.00 | 0.00 | 78 | 1007.9 |
| 20260503171803 | 57 | 207 | 1.0 | 7.0 | 0.00 | 0.00 | 0.00 | 77 | 1008.1 |
| 20260503171203 | 58 | 191 | 2.0 | 8.0 | 0.00 | 0.00 | 0.00 | 76 | 1008.2 |
| 20260503170603 | 58 | 204 | 3.0 | 7.0 | 0.00 | 0.00 | 0.00 | 78 | 1008.3 |
| 20260503150603 | 55 | 149 | 0.0 | 4.0 | 0.00 | 0.00 | 0.00 | 84 | 1006.9 |
| 20260503131203 | 56 | 97 | 1.0 | 6.0 | 0.00 | 0.00 | 0.00 | 77 | 1005.7 |
| 20260503130624 | 56 | 74 | 0.0 | 6.0 | 0.00 | 0.00 | 0.00 | 76 | 1005.6 |
| 20260503110603 | 59 | 103 | 3.0 | 8.0 | 0.00 | 0.00 | 0.00 | 68 | 1005.6 |
| 20260503081203 | 60 | 93 | 3.0 | 8.0 | 0.00 | 0.00 | 0.00 | 69 | 1007.3 |
| 20260503080603 | 60 | 93 | 3.0 | 8.0 | 0.00 | 0.00 | 0.00 | 69 | 1007.3 |
| 20260503072403 | 61 | 100 | 3.0 | 7.0 | 0.00 | 0.00 | 0.00 | 70 | 1007.7 |
| 20260503071824 | 61 | 100 | 2.0 | 7.0 | 0.00 | 0.00 | 0.00 | 70 | 1007.8 |
| 20260503071203 | 61 | 102 | 2.0 | 7.0 | 0.00 | 0.00 | 0.00 | 70 | 1007.7 |
| 20260503070624 | 61 | 101 | 3.0 | 9.0 | 0.00 | 0.00 | 0.00 | 70 | 1007.8 |
| 20260503054803 | 61 | 99 | 2.0 | 7.0 | 0.00 | 0.00 | 0.00 | 71 | 1008.0 |
| 20260503054203 | 61 | 98 | 1.0 | 5.0 | 0.00 | 0.00 | 0.00 | 71 | 1008.1 |
| 20260503053624 | 61 | 98 | 2.0 | 5.0 | 0.00 | 0.00 | 0.00 | 71 | 1008.1 |
| 20260503053003 | 61 | 96 | 2.0 | 6.0 | 0.00 | 0.00 | 0.00 | 71 | 1008.1 |
| 20260503052403 | 61 | 99 | 2.0 | 7.0 | 0.00 | 0.00 | 0.00 | 71 | 1008.0 |
| 20260503051803 | 60 | 98 | 2.0 | 8.0 | 0.00 | 0.00 | 0.00 | 72 | 1008.1 |
| 20260503051203 | 60 | 97 | 2.0 | 8.0 | 0.00 | 0.00 | 0.00 | 72 | 1008.1 |
| 20260503050603 | 60 | 94 | 2.0 | 7.0 | 0.00 | 0.00 | 0.00 | 73 | 1008.0 |
| 20260503050003 | 60 | 90 | 2.0 | 7.0 | 0.00 | 0.00 | 0.00 | 74 | 1008.0 |
| 20260503045424 | 60 | 94 | 2.0 | 8.0 | 0.00 | 0.00 | 0.00 | 74 | 1008.0 |
| 20260503044803 | 60 | 96 | 3.0 | 12.0 | 0.00 | 0.00 | 0.00 | 74 | 1008.0 |
| 20260503044203 | 60 | 95 | 3.0 | 11.0 | 0.00 | 0.00 | 0.00 | 74 | 1008.0 |
| 20260503043603 | 60 | 104 | 2.0 | 11.0 | 0.00 | 0.00 | 0.00 | 74 | 1008.0 |
| 20260503043024 | 60 | 131 | 1.0 | 4.0 | 0.00 | 0.00 | 0.00 | 75 | 1007.8 |
| 20260503042403 | 60 | 142 | 0.0 | 4.0 | 0.00 | 0.00 | 0.00 | 75 | 1007.8 |
| 20260503041803 | 61 | 142 | 0.0 | 2.0 | 0.00 | 0.00 | 0.00 | 74 | 1007.8 |
| 20260503041203 | 61 | 142 | 0.0 | 1.0 | 0.00 | 0.00 | 0.00 | 74 | 1007.8 |
| 20260503040603 | 61 | 142 | 0.0 | 2.0 | 0.00 | 0.00 | 0.00 | 74 | 1007.8 |
| 20260503040003 | 61 | 142 | 0.0 | 2.0 | 0.00 | 0.00 | 0.00 | 74 | 1007.7 |
| 20260503035403 | 61 | 142 | 0.0 | 1.0 | 0.00 | 0.00 | 0.00 | 74 | 1007.7 |
| 20260503034803 | 61 | 0 | 0.0 | 0.0 | 0.00 | 0.00 | 0.00 | 74 | 1007.6 |
| 20260503034203 | 61 | 142 | 0.0 | 2.0 | 0.00 | 0.00 | 0.00 | 75 | 1007.5 |
| 20260503033603 | 61 | 142 | 0.0 | 2.0 | 0.00 | 0.00 | 0.00 | 75 | 1007.4 |
| 20260503033003 | 61 | 146 | 0.0 | 2.0 | 0.00 | 0.00 | 0.00 | 74 | 1007.5 |
| 20260503032403 | 62 | 186 | 0.0 | 2.0 | 0.00 | 0.00 | 0.00 | 74 | 1007.4 |
| 20260503031803 | 62 | 207 | 0.0 | 2.0 | 0.00 | 0.00 | 0.00 | 74 | 1007.3 |
| 20260503031224 | 62 | 207 | 0.0 | 1.0 | 0.00 | 0.00 | 0.00 | 73 | 1007.2 |
| 20260503030603 | 62 | 207 | 0.0 | 2.0 | 0.00 | 0.00 | 0.00 | 73 | 1007.1 |
| 20260503030004 | 63 | 207 | 0.0 | 2.0 | 0.00 | 0.00 | 0.00 | 72 | 1007.1 |
| 20260503025403 | 63 | 207 | 0.0 | 2.0 | 0.00 | 0.00 | 0.00 | 72 | 1007.1 |
| 20260503024803 | 63 | 207 | 0.0 | 2.0 | 0.00 | 0.00 | 0.00 | 72 | 1007.2 |
| 20260503024224 | 63 | 207 | 0.0 | 1.0 | 0.00 | 0.00 | 0.00 | 71 | 1007.2 |
| 20260503023603 | 64 | 207 | 0.0 | 2.0 | 0.00 | 0.00 | 0.00 | 71 | 1007.2 |
| 20260503023003 | 64 | 207 | 0.0 | 2.0 | 0.00 | 0.00 | 0.00 | 69 | 1007.2 |
| 20260503022403 | 64 | 0 | 0.0 | 0.0 | 0.00 | 0.00 | 0.00 | 69 | 1007.1 |
| 20260503021803 | 65 | 207 | 0.0 | 2.0 | 0.00 | 0.00 | 0.00 | 68 | 1007.1 |
| 20260503021203 | 65 | 207 | 0.0 | 2.0 | 0.00 | 0.00 | 0.00 | 67 | 1007.2 |
| 20260503020603 | 65 | 207 | 0.0 | 1.0 | 0.00 | 0.00 | 0.00 | 66 | 1007.1 |
| 20260503020003 | 65 | 0 | 0.0 | 0.0 | 0.00 | 0.00 | 0.00 | 64 | 1007.1 |
| 20260503015403 | 66 | 0 | 0.0 | 0.0 | 0.00 | 0.00 | 0.00 | 63 | 1007.1 |
| 20260503014824 | 66 | 207 | 0.0 | 2.0 | 0.00 | 0.00 | 0.00 | 63 | 1007.3 |
| 20260503014203 | 66 | 204 | 0.0 | 2.0 | 0.00 | 0.00 | 0.00 | 60 | 1007.3 |
| 20260503013603 | 66 | 0 | 0.0 | 0.0 | 0.00 | 0.00 | 0.00 | 53 | 1007.3 |
| 20260503013003 | 67 | 186 | 0.0 | 1.0 | 0.00 | 0.00 | 0.00 | 51 | 1007.3 |
| 20260503012424 | 67 | 187 | 0.0 | 3.0 | 0.00 | 0.00 | 0.00 | 49 | 1007.4 |
| 20260503011824 | 67 | 196 | 0.0 | 3.0 | 0.00 | 0.00 | 0.00 | 47 | 1007.5 |
| 20260503011203 | 67 | 197 | 0.0 | 3.0 | 0.00 | 0.00 | 0.00 | 47 | 1007.4 |
| 20260503010603 | 67 | 177 | 1.0 | 5.0 | 0.00 | 0.00 | 0.00 | 47 | 1007.5 |
| 20260503010003 | 67 | 172 | 1.0 | 7.0 | 0.00 | 0.00 | 0.00 | 46 | 1007.4 |
| 20260503005403 | 67 | 176 | 1.0 | 7.0 | 0.00 | 0.00 | 0.00 | 48 | 1007.5 |
| 20260503004803 | 67 | 203 | 1.0 | 8.0 | 0.00 | 0.00 | 0.00 | 47 | 1007.3 |
| 20260503004203 | 67 | 199 | 1.0 | 8.0 | 0.00 | 0.00 | 0.00 | 48 | 1007.5 |
| 20260503003624 | 68 | 191 | 2.0 | 10.0 | 0.00 | 0.00 | 0.00 | 47 | 1007.4 |
| 20260503003003 | 68 | 193 | 3.0 | 10.0 | 0.00 | 0.00 | 0.00 | 48 | 1007.5 |
| 20260503002424 | 68 | 193 | 1.0 | 5.0 | 0.00 | 0.00 | 0.00 | 50 | 1007.5 |